Volver al catálogo

STARLINK-37575

ActivoComunicacionesVLEO
NORAD 69454·PAYLOAD·🇺🇸 United States

Lanzado Jun 8, 2026 desde Cape Canaveral Space Force Station

Loading…

Próximos Pases (próximas 24 horas)

TLE

ActualizadoSource: CelesTrak SupGP

Época: Sep 14, 2026, 23:03 UTC

1 69454C 26127M   26257.96090278 -.00031553  00000+0 -93200-3 0  2571
2 69454  53.1581 191.8966 0001360  90.1998  58.1655 15.34414811    12

Sigue STARLINK-37575 en tiempo real con AllMySat

Download on the App Store